Wind_Speed
4 3 3 1 1 2 5 7 8 10 12 14 15 15 16 16 17 16 16 17 19 20 19 22 27 29 29 30 32 34 36 37 40 43 45 45 43 40 35 30 25 23 20
9 9 8 7 7 5 5 7 9 10 12 13 16 18 19 20 19 20 20 20 20 21 21 24 26 26 27 30 32 34 36 37 39 43 43 44 43 40 35 29 26 25 23
15 13 12 11 6 9 10 11 11 13 15 15 16 19 20 22 23 23 23 21 20 23 25 25 26 28 30 32 34 35 36 37 39 41 42 43 42 40 34 29 24 25 24
14 12 12 13 14 16 17 19 19 21 23 24 23 22 22 23 25 25 26 27 23 21 23 24 27 29 32 33 34 34 35 37 38 39 40 42 41 39 34 29 24 24 27
20 21 22 23 23 24 27 27 27 28 28 30 31 33 32 27 27 28 28 28 27 25 26 27 25 28 35 38 30 30 31 35 36 37 38 38 37 37 34 30 24 25 25
26 27 28 30 30 32 33 35 35 35 35 36 37 36 32 32 32 31 30 26 27 27 26 27 27 34 35 38 27 34 33 38 34 33 34 35 34 35 33 30 25 27 24
34 35 36 37 38 41 42 42 42 42 40 42 44 42 38 32 32 33 32 28 25 28 31 30 30 33 35 32 37 44 45 28 26 27 31 30 32 33 31 29 25 26 25
42 41 42 42 44 46 46 47 48 47 46 50 50 48 46 42 39 36 35 33 28 30 31 30 32 34 34 38 38 40 34 19 23 24 29 29 28 31 28 26 24 21 22
48 50 52 51 50 51 52 51 52 53 55 58 57 53 50 48 46 46 40 36 32 30 34 31 32 30 32 34 36 34 27 18 22 22 27 28 24 26 25 22 20 16 15
56 57 59 61 58 58 62 62 62 62 62 62 62 59 56 53 52 52 51 44 39 37 35 35 33 31 30 34 32 34 26 22 26 24 23 27 24 23 22 18 18 13 11
62 65 65 67 67 64 65 64 66 66 67 68 68 65 62 58 55 54 55 51 46 42 41 36 32 34 31 33 33 30 28 22 23 29 23 24 24 20 19 13 12 12 7
66 67 68 68 69 70 70 70 72 72 73 72 70 68 67 63 60 57 57 57 52 45 44 40 36 33 34 33 33 33 27 26 23 27 25 21 22 19 16 13 7 7 5
65 67 68 69 70 70 71 72 72 72 70 69 68 67 65 61 58 55 54 54 54 51 47 45 39 37 35 33 34 35 30 26 24 25 28 21 19 19 14 14 7 4 2
67 68 69 69 68 67 67 67 67 67 66 66 66 64 62 58 55 52 49 49 50 48 46 48 48 41 36 37 34 36 36 29 24 23 30 25 19 20 16 12 12 4 3
64 65 65 66 67 68 68 68 69 69 70 70 70 70 67 64 62 57 55 53 52 52 48 45 49 48 40 39 36 40 40 34 27 25 25 29 23 20 20 11 12 11 6
66 68 70 72 74 75 75 76 76 74 74 75 74 73 73 73 72 70 66 62 58 55 53 48 45 46 41 43 40 43 44 39 31 27 27 27 30 25 23 23 17 13 12
63 62 62 62 61 60 59 57 56 54 52 52 54 57 59 58 61 63 63 65 66 62 57 53 47 43 44 46 45 46 48 45 37 30 31 30 30 31 27 25 24 21 16
60 61 60 60 60 60 63 60 59 59 57 58 57 57 54 54 54 56 57 61 62 65 63 57 51 48 46 48 49 48 49 49 42 34 33 35 31 33 31 28 27 24 21
59 64 69 71 71 71 71 69 68 65 62 59 60 60 58 58 59 61 62 60 62 64 64 61 55 52 49 49 52 50 51 50 47 39 34 35 35 34 34 31 26 25 22
52 51 50 47 46 49 52 54 54 53 52 53 54 53 51 52 51 50 50 53 54 57 62 61 58 56 52 51 54 53 53 50 49 45 38 37 39 36 36 34 30 25 21
41 42 41 38 33 30 31 33 38 43 46 47 49 47 46 44 44 41 39 45 50 58 68 65 61 59 54 53 56 54 52 50 50 48 44 40 40 40 38 37 36 29 26
39 37 35 29 28 31 32 34 34 37 40 41 41 42 40 38 37 36 36 37 43 49 60 69 65 61 56 56 56 54 52 51 49 49 47 44 41 41 39 40 35 36 36
32 32 31 31 32 32 30 30 27 25 24 26 31 35 36 36 34 32 34 34 34 41 51 65 67 63 57 58 58 57 55 53 51 49 47 46 43 41 38 40 37 34 35
28 30 27 27 29 31 30 28 29 27 24 22 21 22 27 32 34 35 37 37 34 35 45 57 63 60 59 59 59 58 56 56 55 51 49 48 39 37 36 38 43 40 36
31 30 25 27 28 27 26 23 24 22 24 26 25 25 27 28 27 29 31 34 33 32 39 49 42 56 56 58 58 56 57 54 54 50 44 40 44 40 42 42 41 42 41
31 30 26 26 27 23 21 21 22 24 22 21 22 26 29 30 28 29 28 29 29 28 32 32 42 49 50 54 56 50 54 52 50 47 42 39 40 44 42 39 42 42 49
Wind_Direction
303 308 339 14 74 20 18 21 16 9 1 355 345 338 337 337 334 333 332 330 326 330 335 328 328 326 322 322 328 329 330 329 332 338 342 344 347 342 340 337 335 333 316
274 278 287 289 281 341 345 355 344 355 351 346 348 335 329 326 324 323 321 320 321 323 326 328 328 328 326 323 324 325 327 327 329 333 341 344 347 344 344 341 346 341 326
273 274 279 279 277 284 287 292 309 317 330 328 326 338 327 319 311 309 310 314 316 316 322 324 322 324 324 323 323 324 325 324 326 330 340 344 347 346 347 345 350 350 334
261 268 278 293 298 299 299 300 302 310 317 320 314 316 318 314 311 296 300 305 312 320 318 317 316 324 321 314 313 316 319 320 322 326 337 344 347 348 350 349 354 348 341
271 268 275 292 291 292 297 302 304 310 314 314 314 316 315 312 303 299 297 302 306 310 306 310 318 313 323 313 298 313 323 316 317 321 331 344 347 348 353 351 359 353 351
267 266 275 281 282 290 298 301 303 306 307 311 310 308 307 307 304 300 295 295 299 300 301 305 307 311 312 323 310 315 322 307 305 314 328 345 347 351 356 355 5 358 3
267 270 277 285 288 292 295 295 294 295 297 301 303 303 301 299 298 296 293 296 295 289 288 293 295 301 308 306 308 312 317 301 296 311 323 340 347 353 356 1 12 4 16
267 271 274 273 274 279 283 284 285 289 291 296 299 299 298 297 300 298 295 295 295 292 286 287 288 291 301 300 309 313 319 294 298 313 319 334 346 352 356 10 14 20 27
267 268 269 268 268 273 279 282 283 284 286 292 293 292 291 292 293 294 292 292 295 288 287 283 284 289 295 299 303 307 317 281 295 309 316 326 342 349 356 12 18 38 50
259 266 269 278 276 282 279 279 279 281 283 284 286 288 286 286 288 288 286 287 289 289 285 283 284 283 285 290 297 301 308 280 278 295 308 318 332 343 350 9 23 40 74
276 277 276 276 276 277 276 278 278 279 279 281 282 282 283 283 282 282 284 281 279 283 285 283 282 280 279 280 286 290 302 291 281 276 293 306 320 331 336 359 23 32 80
272 273 274 276 277 276 276 275 274 276 276 277 278 279 279 279 279 279 278 278 277 276 277 277 277 273 275 274 276 283 293 295 289 267 273 291 309 317 320 333 18 36 54
271 272 272 273 274 275 275 275 275 275 275 275 274 273 272 272 271 268 267 269 269 267 270 272 270 266 269 264 267 273 281 286 292 275 260 277 299 304 311 310 333 3 46
275 276 276 276 275 273 273 273 273 273 273 273 272 271 270 269 268 266 265 267 269 267 264 265 266 260 257 262 260 263 270 276 281 280 262 260 275 287 300 295 302 313 291
280 280 280 280 280 280 279 278 277 276 275 274 273 271 270 269 268 266 265 264 264 266 265 260 257 257 252 251 249 256 261 266 267 273 272 254 262 275 282 292 280 288 276
285 284 283 281 280 280 280 280 279 279 278 276 274 273 272 271 270 268 264 261 261 261 261 258 254 253 246 242 240 247 253 257 259 260 265 259 257 259 268 271 284 271 271
286 285 284 282 281 280 279 278 279 278 276 272 270 269 270 271 270 266 262 260 259 256 254 254 251 245 239 236 235 237 246 250 250 250 258 257 255 255 261 267 272 277 264
287 285 283 282 280 281 278 272 274 273 271 270 270 271 272 273 272 271 266 259 251 250 248 246 245 243 236 231 233 235 241 245 247 242 247 255 248 250 255 262 266 270 271
292 289 288 286 281 277 275 274 272 273 270 270 268 269 271 274 274 272 267 264 253 243 240 238 236 239 235 230 232 233 238 242 247 241 238 247 248 243 249 259 257 263 266
295 295 297 296 289 280 277 276 275 271 270 269 266 267 268 270 271 271 270 258 237 231 228 226 226 231 232 228 229 232 234 240 244 244 236 240 249 246 244 251 250 246 261
301 302 302 302 301 296 292 289 282 276 271 265 263 264 264 264 264 266 266 255 241 231 225 214 216 223 225 224 228 231 232 237 240 244 242 235 242 246 246 247 250 247 249
306 304 300 298 298 300 296 294 290 281 273 267 264 261 257 254 259 259 258 253 245 238 230 219 209 215 217 221 226 230 233 235 240 241 246 243 237 245 248 248 248 250 247
307 304 296 292 293 296 296 296 301 297 281 269 263 262 254 250 249 250 251 249 244 243 231 224 214 208 211 217 222 228 232 234 237 243 245 249 241 242 247 247 244 253 247
304 308 302 299 298 297 300 299 299 293 287 281 273 263 257 255 256 253 248 243 245 241 233 223 219 209 210 216 221 226 229 235 241 244 246 248 246 246 247 242 244 245 248
299 299 298 303 311 306 303 303 306 305 292 274 271 266 261 258 255 247 244 238 243 241 227 228 224 211 212 216 221 226 232 234 239 243 238 236 248 245 247 250 238 247 250
288 287 292 304 304 305 306 311 314 311 301 284 275 263 276 256 250 247 243 242 246 235 221 217 211 214 211 220 220 223 230 236 240 244 248 248 247 247 243 249 250 241 253
Height
5938 5938 5938 5937 5937 5936 5936 5935 5935 5934 5933 5932 5930 5928 5926 5925 5923 5921 5919 5918 5917 5916 5916 5915 5912 5909 5905 5901 5895 5890 5883 5877 5871 5862 5856 5846 5837 5827 5818 5810 5802 5796 5792
5935 5935 5935 5935 5935 5935 5934 5934 5934 5933 5932 5930 5928 5927 5925 5923 5921 5919 5917 5916 5916 5914 5913 5912 5908 5904 5899 5896 5891 5885 5879 5873 5867 5860 5853 5844 5834 5825 5815 5807 5798 5791 5787
5933 5932 5932 5933 5933 5933 5933 5932 5931 5930 5929 5928 5926 5924 5922 5921 5919 5916 5914 5914 5915 5913 5911 5907 5904 5900 5896 5891 5887 5882 5876 5870 5864 5858 5850 5842 5832 5823 5813 5805 5796 5789 5783
5927 5926 5928 5928 5928 5928 5927 5926 5925 5925 5923 5922 5921 5920 5918 5916 5915 5912 5912 5911 5912 5911 5907 5903 5899 5896 5890 5885 5880 5876 5871 5867 5861 5855 5848 5842 5832 5822 5812 5804 5795 5787 5781
5923 5923 5922 5920 5920 5920 5919 5918 5918 5917 5916 5915 5914 5913 5912 5911 5909 5907 5907 5907 5908 5906 5901 5898 5895 5889 5883 5876 5872 5871 5866 5862 5858 5854 5847 5840 5830 5822 5813 5804 5794 5786 5781
5917 5917 5916 5916 5916 5915 5913 5911 5909 5908 5908 5907 5907 5907 5906 5905 5903 5900 5901 5901 5901 5900 5896 5894 5889 5883 5878 5872 5868 5865 5861 5857 5854 5851 5845 5839 5830 5822 5814 5806 5796 5788 5783
5908 5906 5906 5906 5905 5904 5903 5901 5901 5900 5899 5899 5898 5897 5898 5898 5896 5894 5892 5893 5894 5892 5889 5886 5883 5878 5874 5870 5864 5859 5854 5849 5849 5847 5843 5839 5832 5823 5817 5808 5800 5793 5788
5898 5897 5896 5896 5896 5894 5893 5892 5891 5889 5889 5888 5888 5887 5887 5887 5886 5886 5884 5884 5885 5883 5880 5878 5875 5872 5868 5864 5859 5855 5851 5847 5848 5845 5841 5838 5832 5826 5820 5812 5805 5800 5794
5884 5883 5883 5881 5880 5882 5881 5880 5879 5878 5877 5876 5876 5876 5876 5875 5875 5874 5874 5875 5876 5875 5871 5869 5867 5866 5862 5858 5855 5851 5848 5846 5845 5843 5839 5837 5833 5827 5823 5816 5810 5806 5803
5869 5870 5869 5869 5869 5866 5867 5865 5864 5863 5862 5862 5862 5862 5861 5862 5861 5860 5859 5863 5865 5863 5862 5862 5861 5859 5856 5853 5850 5847 5844 5842 5841 5841 5838 5836 5834 5829 5824 5820 5815 5812 5810
5854 5853 5853 5852 5850 5849 5849 5848 5847 5847 5846 5845 5845 5846 5846 5846 5846 5846 5844 5846 5850 5851 5849 5851 5853 5850 5849 5846 5843 5842 5839 5837 5836 5837 5836 5833 5832 5830 5826 5823 5818 5816 5815
5837 5836 5835 5833 5832 5830 5829 5829 5828 5827 5827 5827 5827 5827 5827 5828 5829 5830 5830 5829 5832 5836 5837 5838 5842 5842 5841 5840 5837 5835 5834 5832 5830 5831 5832 5830 5830 5829 5826 5824 5821 5817 5817
5820 5818 5817 5815 5813 5811 5809 5808 5807 5805 5805 5805 5805 5805 5807 5809 5811 5813 5813 5814 5816 5820 5823 5824 5827 5830 5830 5830 5829 5828 5827 5826 5825 5825 5827 5827 5827 5826 5825 5823 5822 5820 5818
5800 5798 5795 5792 5791 5790 5788 5786 5784 5784 5783 5782 5782 5783 5785 5788 5791 5792 5796 5797 5798 5802 5806 5809 5812 5814 5818 5819 5819 5819 5818 5818 5819 5820 5820 5822 5822 5822 5822 5822 5821 5820 5818
5778 5775 5773 5769 5766 5765 5763 5763 5761 5761 5759 5758 5759 5759 5762 5766 5768 5774 5777 5779 5783 5785 5789 5793 5795 5799 5805 5806 5809 5808 5808 5808 5811 5813 5814 5816 5816 5817 5818 5819 5819 5819 5817
5757 5754 5751 5747 5744 5741 5738 5736 5735 5735 5733 5731 5733 5733 5738 5741 5744 5749 5755 5760 5765 5769 5772 5777 5781 5785 5790 5791 5794 5796 5797 5798 5801 5804 5807 5808 5810 5811 5812 5814 5817 5816 5815
5737 5733 5729 5725 5722 5719 5717 5715 5713 5712 5711 5710 5710 5711 5713 5717 5719 5723 5728 5736 5743 5749 5755 5760 5765 5770 5773 5776 5780 5784 5784 5785 5789 5794 5796 5801 5802 5803 5806 5808 5810 5812 5812
5718 5713 5710 5707 5704 5700 5697 5695 5695 5694 5693 5692 5691 5692 5694 5696 5698 5699 5704 5711 5717 5725 5733 5741 5748 5754 5758 5761 5765 5769 5771 5774 5777 5782 5785 5790 5794 5795 5797 5801 5803 5805 5806
5701 5696 5689 5683 5679 5676 5673 5672 5672 5672 5673 5672 5672 5674 5674 5675 5677 5675 5679 5686 5690 5698 5708 5718 5728 5735 5741 5747 5750 5755 5758 5761 5764 5769 5774 5779 5783 5787 5789 5792 5796 5799 5799
5683 5677 5670 5662 5656 5652 5651 5651 5650 5650 5651 5651 5652 5654 5654 5656 5656 5655 5655 5658 5664 5673 5683 5694 5706 5716 5724 5731 5735 5740 5745 5747 5753 5757 5762 5768 5772 5776 5780 5782 5786 5790 5793
5669 5663 5658 5652 5646 5642 5640 5638 5636 5633 5632 5633 5634 5637 5638 5639 5640 5640 5642 5644 5648 5653 5661 5670 5683 5695 5705 5714 5720 5726 5731 5735 5739 5744 5750 5756 5761 5765 5769 5773 5776 5781 5784
5658 5653 5648 5644 5640 5636 5632 5627 5623 5619 5616 5617 5619 5620 5623 5625 5627 5629 5630 5632 5635 5639 5645 5652 5662 5676 5688 5698 5706 5713 5719 5723 5726 5732 5738 5743 5750 5755 5759 5762 5766 5770 5775
5649 5644 5639 5636 5632 5627 5623 5619 5614 5609 5606 5605 5606 5607 5609 5611 5614 5617 5620 5622 5625 5628 5632 5640 5646 5659 5673 5682 5691 5698 5704 5710 5715 5721 5727 5732 5738 5743 5748 5752 5755 5759 5763
5642 5637 5632 5628 5623 5619 5615 5611 5607 5603 5600 5598 5597 5597 5598 5599 5602 5605 5608 5611 5615 5618 5622 5629 5637 5648 5660 5670 5679 5685 5693 5698 5703 5710 5715 5721 5726 5732 5737 5741 5744 5748 5752
5633 5629 5625 5620 5616 5611 5608 5604 5600 5595 5591 5590 5590 5590 5590 5590 5593 5595 5598 5602 5605 5609 5614 5620 5634 5639 5649 5658 5667 5675 5681 5687 5692 5698 5704 5712 5715 5720 5723 5729 5732 5736 5739
5623 5620 5617 5613 5609 5605 5602 5598 5593 5589 5585 5582 5581 5581 5581 5581 5584 5587 5590 5593 5596 5601 5607 5615 5623 5633 5640 5649 5657 5665 5669 5676 5682 5688 5693 5699 5704 5707 5711 5716 5718 5722 5726